EW3043 Weather Reports


Display with metric or nautical units.
time (UTC)temp
F
wind
direction
speed
MPH
gust
MPH
rain 1hr
in
rain 24hr
in
rain mn
in
humidity
%
barometer
mb
20260504202218 48 239 1.0 5.0 0.00 0.00 0.00 51 1014.4
20260504201717 49 240 1.0 6.0 0.00 0.00 0.00 49 1014.5
20260504201158 50 250 1.0 6.0 0.00 0.00 0.00 48 1014.5
20260504200716 51 66 1.0 4.0 0.00 0.00 0.00 45 1014.5
20260504200234 51 50 1.0 3.0 0.00 0.00 0.00 47 1014.4
20260504195712 50 311 1.0 4.0 0.00 0.00 0.00 45 1014.4
20260504195210 51 112 1.0 6.0 0.00 0.00 0.00 44 1014.6
20260504194707 51 243 1.0 6.0 0.00 0.00 0.00 42 1014.5
20260504194204 52 242 1.0 5.0 0.00 0.00 0.00 40 1014.5
20260504193701 52 288 2.0 5.0 0.00 0.00 0.00 37 1014.3
20260504193159 54 258 2.0 4.0 0.00 0.00 0.00 31 1014.3
20260504192716 55 271 1.0 4.0 0.00 0.00 0.00 27 1014.4
20260504192214 55 287 1.0 4.0 0.00 0.00 0.00 27 1014.4
20260504191712 56 255 1.0 3.0 0.00 0.00 0.00 26 1014.2
20260504191210 56 360 1.0 4.0 0.00 0.00 0.00 22 1014.3
20260504190701 56 20 1.0 4.0 0.00 0.00 0.00 22 1014.2
20260504190237 55 295 1.0 3.0 0.00 0.00 0.00 25 1014.2
20260504185714 54 306 1.0 3.0 0.00 0.00 0.00 27 1014.2
20260504185211 53 46 1.0 3.0 0.00 0.00 0.00 31 1014.2
20260504184708 53 360 1.0 5.0 0.00 0.00 0.00 28 1014.3
20260504184209 53 43 2.0 6.0 0.00 0.00 0.00 32 1014.4
20260504183707 53 228 2.0 6.0 0.00 0.00 0.00 31 1014.4
20260504183204 53 358 2.0 4.0 0.00 0.00 0.00 31 1014.4
20260504182701 53 43 2.0 4.0 0.00 0.00 0.00 32 1014.6
20260504182159 52 63 1.0 4.0 0.00 0.00 0.00 30 1014.3
20260504181717 53 43 3.0 4.0 0.00 0.00 0.00 29 1014.3
20260504181215 52 79 1.0 3.0 0.00 0.00 0.00 31 1014.2
20260504180713 52 41 2.0 5.0 0.00 0.00 0.00 30 1014.3
20260504180210 52 266 2.0 6.0 0.00 0.00 0.00 31 1014.3
20260504175709 52 43 1.0 7.0 0.00 0.00 0.00 30 1014.3
20260504175207 52 43 3.0 7.0 0.00 0.00 0.00 30 1014.2
20260504174724 52 76 2.0 5.0 0.00 0.00 0.00 31 1014.0
20260504174201 52 53 2.0 5.0 0.00 0.00 0.00 29 1014.1
20260504173659 51 356 1.0 5.0 0.00 0.00 0.00 31 1014.0
20260504173217 50 63 2.0 4.0 0.00 0.00 0.00 33 1014.0
20260504172715 50 47 1.0 4.0 0.00 0.00 0.00 33 1014.1
20260504172212 50 24 1.0 4.0 0.00 0.00 0.00 32 1014.0
20260504171709 50 20 1.0 3.0 0.00 0.00 0.00 31 1013.9
20260504171206 49 235 1.0 3.0 0.00 0.00 0.00 31 1014.0
20260504170702 49 255 1.0 3.0 0.00 0.00 0.00 28 1013.9
20260504170220 49 282 1.0 3.0 0.00 0.00 0.00 28 1013.9
20260504160213 46 45 0.0 3.0 0.00 0.00 0.00 33 1013.8
20260504150706 39 48 0.0 1.0 0.00 0.00 0.00 56 1013.4
20260504150203 38 49 0.0 1.0 0.00 0.00 0.00 57 1013.3
20260504141200 34 143 0.0 1.0 0.00 0.00 0.00 65 1012.9
20260504140719 34 101 0.0 1.0 0.00 0.00 0.00 63 1013.1
20260504140237 34 68 0.0 1.0 0.00 0.00 0.00 65 1012.9
20260504130709 33 126 0.0 1.0 0.00 0.00 0.00 59 1012.9
20260504130207 33 135 0.0 1.0 0.00 0.00 0.00 59 1012.9
20260504120226 35 50 0.0 1.0 0.00 0.00 0.00 56 1012.8
20260504110228 35 243 0.0 1.0 0.00 0.00 0.00 56 1012.8
20260504100203 32 63 0.0 0.0 0.00 0.00 0.00 90 1012.8
20260504081718 34 16 0.0 3.0 0.00 0.00 0.00 86 1013.7
20260504081215 34 19 1.0 3.0 0.00 0.00 0.00 83 1013.6
20260504080714 34 248 0.0 2.0 0.00 0.00 0.00 84 1014.2
20260504080211 34 300 0.0 2.0 0.00 0.00 0.00 86 1014.1
20260504070208 33 211 0.0 1.0 0.00 0.00 0.00 88 1013.7
20260504060204 35 72 0.0 1.0 0.00 0.00 0.00 90 1013.6
20260504050736 35 41 0.0 1.0 0.00 0.00 0.00 89 1014.3
20260504050211 35 41 0.0 1.0 0.00 0.00 0.00 89 1014.3
20260504045712 36 41 0.0 1.0 0.00 0.00 0.00 88 1014.4
20260504045231 36 266 0.0 1.0 0.00 0.00 0.00 88 1014.3
20260504044727 36 42 0.0 1.0 0.00 0.00 0.00 88 1014.2
20260504044205 36 31 0.0 3.0 0.00 0.00 0.00 88 1014.3
20260504043722 36 37 1.0 3.0 0.00 0.00 0.00 88 1014.0
20260504043219 36 45 1.0 2.0 0.00 0.00 0.00 88 1013.8
20260504042717 36 61 0.0 2.0 0.00 0.00 0.00 87 1013.7
20260504042235 36 60 1.0 2.0 0.00 0.00 0.00 87 1013.8
20260504041711 37 347 1.0 5.0 0.00 0.00 0.00 87 1013.7
20260504041209 37 37 1.0 5.0 0.00 0.00 0.00 87 1013.7
20260504040707 37 75 1.0 2.0 0.00 0.00 0.00 87 1013.7
20260504040205 37 33 1.0 2.0 0.00 0.00 0.00 86 1013.4
20260504035743 37 66 1.0 3.0 0.00 0.00 0.00 86 1013.6
20260504035219 38 60 1.0 4.0 0.00 0.00 0.00 86 1013.4
20260504034717 38 56 1.0 4.0 0.00 0.00 0.00 86 1013.4
20260504034236 38 240 1.0 5.0 0.00 0.00 0.00 85 1013.4
20260504033733 39 63 1.0 5.0 0.00 0.00 0.00 85 1013.5
20260504033209 39 238 0.0 2.0 0.00 0.00 0.00 85 1013.5
20260504032707 39 128 0.0 2.0 0.00 0.00 0.00 85 1013.4
20260504032205 39 141 0.0 4.0 0.00 0.00 0.00 84 1013.6
20260504031723 39 224 1.0 6.0 0.00 0.00 0.00 83 1013.6
20260504031221 39 277 1.0 6.0 0.00 0.00 0.00 84 1013.4
20260504030721 40 349 2.0 6.0 0.00 0.00 0.00 84 1013.5
20260504030239 40 344 1.0 6.0 0.00 0.00 0.00 82 1013.3
20260504025716 40 25 0.0 3.0 0.00 0.00 0.00 81 1013.1
20260504025213 40 277 1.0 5.0 0.00 0.00 0.00 79 1013.1
20260504024712 41 342 1.0 5.0 0.00 0.00 0.00 79 1013.1
20260504024209 41 150 1.0 3.0 0.00 0.00 0.00 78 1013.0
20260504023707 41 66 1.0 2.0 0.00 0.00 0.00 77 1012.9
20260504023205 42 17 0.0 3.0 0.00 0.00 0.00 76 1013.1
20260504022723 42 348 1.0 4.0 0.00 0.00 0.00 76 1013.1
20260504022221 43 44 1.0 4.0 0.00 0.00 0.00 76 1012.9
20260504021718 43 256 2.0 4.0 0.00 0.00 0.00 74 1013.0
20260504021216 43 297 0.0 2.0 0.00 0.00 0.00 72 1013.1
20260504020714 44 272 1.0 4.0 0.00 0.00 0.00 73 1013.1
20260504020211 44 310 1.0 5.0 0.00 0.00 0.00 72 1013.0
20260504015730 45 240 2.0 5.0 0.00 0.00 0.00 72 1013.3
20260504015246 46 282 1.0 5.0 0.00 0.00 0.00 71 1013.4
20260504014723 46 246 0.0 2.0 0.00 0.00 0.00 69 1013.3
20260504014221 47 260 1.0 4.0 0.00 0.00 0.00 69 1013.4
20260504013722 47 240 1.0 6.0 0.00 0.00 0.00 68 1013.6
20260504013218 48 245 1.0 6.0 0.00 0.00 0.00 68 1013.7
20260504012716 49 80 1.0 5.0 0.00 0.00 0.00 64 1013.8
20260504012213 49 256 1.0 8.0 0.00 0.00 0.00 62 1013.7
20260504011732 50 165 1.0 8.0 0.00 0.00 0.00 55 1013.6
20260504011208 51 242 2.0 7.0 0.00 0.00 0.00 53 1013.5
20260504010726 52 158 1.0 5.0 0.00 0.00 0.00 50 1013.5
20260504010243 52 235 1.0 4.0 0.00 0.00 0.00 49 1013.4
20260504005721 52 282 1.0 4.0 0.00 0.00 0.00 46 1013.4
20260504005217 52 273 1.0 6.0 0.00 0.00 0.00 42 1013.5
20260504004714 52 180 2.0 6.0 0.00 0.00 0.00 45 1013.6
20260504004213 52 242 1.0 7.0 0.00 0.00 0.00 46 1013.5
20260504003712 53 198 3.0 7.0 0.00 0.00 0.00 46 1013.4
20260504003208 53 219 1.0 5.0 0.00 0.00 0.00 48 1013.5
20260504002726 53 192 2.0 6.0 0.00 0.00 0.00 46 1013.5
20260504002223 53 217 2.0 6.0 0.00 0.00 0.00 46 1013.7
20260504001721 54 201 2.0 6.0 0.00 0.00 0.00 46 1013.7
20260504001223 54 296 1.0 6.0 0.00 0.00 0.00 51 1013.6
20260504000722 54 265 1.0 5.0 0.00 0.00 0.00 49 1013.8
20260504000219 54 172 1.0 5.0 0.00 0.00 0.00 50 1014.0
20260503235717 54 299 1.0 5.0 0.00 0.00 0.00 50 1014.3
20260503235234 54 209 0.0 4.0 0.00 0.00 0.00 50 1014.3
20260503234711 54 236 1.0 3.0 0.00 0.00 0.00 47 1014.3
20260503234208 55 291 1.0 3.0 0.00 0.00 0.00 48 1014.5
20260503233746 55 34 1.0 4.0 0.00 0.00 0.00 47 1014.5
20260503233244 55 235 1.0 5.0 0.00 0.00 0.00 47 1014.5
20260503232721 55 291 1.0 5.0 0.00 0.00 0.00 48 1014.4
20260503232219 56 277 1.0 3.0 0.00 0.00 0.00 47 1014.6
20260503231716 56 242 1.0 4.0 0.00 0.00 0.00 46 1014.6
20260503231214 56 58 1.0 4.0 0.00 0.00 0.00 45 1014.7
20260503230712 57 86 1.0 4.0 0.00 0.00 0.00 44 1014.8
20260503230208 57 239 1.0 4.0 0.00 0.00 0.00 42 1014.8
20260503225747 58 138 1.0 4.0 0.00 0.00 0.00 42 1014.8
20260503225243 58 80 1.0 5.0 0.00 0.00 0.00 42 1014.8
20260503224741 58 255 1.0 3.0 0.00 0.00 0.00 40 1014.8
20260503224217 58 245 0.0 4.0 0.00 0.00 0.00 42 1014.8
20260503223735 58 260 1.0 5.0 0.00 0.00 0.00 42 1015.0
20260503223212 58 299 1.0 5.0 0.00 0.00 0.00 43 1015.0
20260503222709 59 288 1.0 4.0 0.00 0.00 0.00 42 1015.3
20260503222211 59 88 1.0 4.0 0.00 0.00 0.00 37 1015.2
20260503221708 58 221 1.0 7.0 0.00 0.00 0.00 40 1015.1
20260503221227 59 260 2.0 7.0 0.00 0.00 0.00 40 1015.1
20260503220724 59 210 0.0 6.0 0.00 0.00 0.00 41 1015.1
20260503220242 59 240 2.0 6.0 0.00 0.00 0.00 39 1015.1
20260503215720 59 242 1.0 3.0 0.00 0.00 0.00 40 1015.0
20260503215215 60 253 1.0 4.0 0.00 0.00 0.00 38 1015.0
20260503214711 60 259 1.0 6.0 0.00 0.00 0.00 39 1015.2
20260503214209 61 39 2.0 5.0 0.00 0.00 0.00 37 1015.1
20260503213727 61 250 1.0 3.0 0.00 0.00 0.00 36 1015.2
20260503213224 61 67 1.0 4.0 0.00 0.00 0.00 38 1015.1
20260503212723 61 262 2.0 4.0 0.00 0.00 0.00 36 1015.1
20260503212220 61 146 1.0 4.0 0.00 0.00 0.00 36 1015.1
20260503211717 62 273 1.0 4.0 0.00 0.00 0.00 34 1015.0
20260503211214 62 246 1.0 5.0 0.00 0.00 0.00 36 1015.1
20260503210712 62 274 1.0 7.0 0.00 0.00 0.00 30 1015.1
20260503210214 62 255 1.0 7.0 0.00 0.00 0.00 29 1015.2
20260503205712 62 293 0.0 5.0 0.00 0.00 0.00 31 1015.1
20260503205209 63 294 3.0 5.0 0.00 0.00 0.00 27 1015.3
20260503204707 64 255 1.0 6.0 0.00 0.00 0.00 30 1015.3
20260503204227 63 274 1.0 6.0 0.00 0.00 0.00 31 1015.2
20260503203725 64 204 1.0 7.0 0.00 0.00 0.00 29 1015.3
20260503203222 63 191 2.0 9.0 0.00 0.00 0.00 28 1015.3
20260503202740 64 265 2.0 9.0 0.00 0.00 0.00 29 1015.3